Weather in South Tarawa

Kiribati     1°21′52″N   173°09′20″E
temp.,
°C
wind,
m/s
gust,
m/s
humid.,
%
clouds,
%
prec.,
mm/h
press.,
hPa
HPBL,
m
26 october, tue
tue2600:00+28ne22737 0.0 1011714
03:00+27ese11735 0.3 1010372
06:00+27se227583 0.6 1011607
09:00+27ese227616 0.0 1012654
12:00+28se337617 0.0 1011723
15:00+28se447420 0.0 1009785
18:00+28se66745 0.1 1011801
21:00+28se67755 0.0 1012783
27 october, wed
wed2700:00+28se66737 0.0 1012994
03:00+28se556988 0.0 10101088
06:00+27se56725 0.1 1011943
09:00+28se55715 0.0 1013819
12:00+28se45695 0.0 1012680
15:00+28ese55720 0.0 1010805
18:00+28ese557519 0.0 1011841
21:00+27se557899 0.4 1013645
28 october, thu
thu2800:00+27se568296 2.8 1012578
03:00+28ese6676100 1.1 1010820
06:00+27ese5579100 3.3 1012577
09:00+28se667498 3.7 1013963
12:00+28ese66725 3.7 1011968
15:00+28ese56735 0.0 1009930
18:00+28ese567498 0.0 1010881
21:00+28ese5577100 0.1 1013799
29 october, fri
fri2900:00+27ese5680100 0.8 1012675
03:00+27e6680100 1.0 1011700
06:00+27ese677966 1.3 1011829
09:00+28ese7877100 0.2 1012832
12:00+28ese887597 0.7 1011933
15:00+28ese887176 0.0 1009921
18:00+28e776997 0.0 1011919
21:00+28e78693 0.0 1013925
30 october, sat
sat3000:00+28e78719 0.0 10121028
03:00+28e687510 0.0 1010895
06:00+27ese788016 0.1 1012794
09:00+28e910779 0.6 1013995
12:00+28e910691 0.7 1011979
15:00+28ene99705 0.0 10081049
18:00+28e79736 0.0 1009996
21:00+28e797543 0.0 10111010